Temp_Advection
nan nan nan nan nan nan nan nan nan nan nan nan nan nan nan nan nan nan nan nan nan nan nan nan nan nan nan nan nan nan nan nan nan nan nan nan nan nan nan nan nan nan nan
nan 0 0 0 0 0 0 0 0 0 0 0 0 0 0 0 0 0 0 0 0 0 0 0 0 0 0 0 0 0 0 0 -0 0 0 0 0 0 0 0 -0 -0 nan
nan 0 0 0 0 0 0 0 0 0 0 0 0 0 0 0 0 0 0 0 0 -0 0 0 0 0 0 0 0 0 0 0 -0 -0 0 0 0 0 0 0 0 0 nan
nan 0 0 0 0 0 0 0 -0 -0 0 0 0 1 0 0 0 0 -0 -0 0 0 -0 -0 -0 -0 -0 0 0 0 0 0 -0 0 0 0 0 0 0 0 0 0 nan
nan 0 0 -0 0 0 0 0 -0 0 -0 0 0 0 0 0 0 0 -0 -0 -0 0 0 -0 -0 0 -0 -0 0 0 -0 0 0 0 0 0 0 0 0 0 0 0 nan
nan 0 0 0 0 0 0 0 0 0 0 0 0 0 0 -0 -0 -0 -0 -0 0 0 0 0 -0 0 0 0 0 0 0 -0 -0 -0 -0 0 0 0 0 -0 -0 0 nan
nan 0 0 0 0 0 0 0 0 0 1 1 0 -0 0 0 0 -0 -0 -0 -0 0 0 0 0 0 0 0 0 0 0 -0 -0 0 0 0 0 0 0 0 0 -0 nan
nan 0 0 0 0 0 0 0 -0 -0 -0 0 0 -0 0 0 0 0 0 0 0 0 0 0 -0 -0 -0 0 0 0 0 0 -0 -0 0 0 -0 -0 0 0 -0 -0 nan
nan 0 0 0 0 0 0 0 0 0 0 -0 0 0 -0 -0 -0 -0 0 0 0 0 0 0 0 -0 -0 -0 -0 -0 -0 -0 -0 -0 -0 -0 -0 0 -0 0 0 0 nan
nan 0 0 0 0 -0 0 0 0 -0 0 0 -0 0 0 0 -0 0 0 0 0 0 0 0 0 0 0 0 0 0 -0 -0 0 0 -0 -0 -0 -0 -0 -0 -0 -0 nan
nan 0 0 0 0 -0 -0 -0 -0 -0 -0 0 -0 -0 -0 0 0 0 0 0 0 0 0 0 0 0 0 0 0 0 0 0 0 0 0 0 0 -0 -0 -0 0 -0 nan
nan 0 0 0 0 0 0 -0 -1 -0 -0 0 0 0 0 0 1 0 0 0 0 0 0 0 0 0 0 0 0 0 0 0 0 0 0 -0 -0 0 0 0 0 0 nan
nan -0 0 0 -0 0 1 0 1 1 1 0 0 0 0 0 0 0 0 0 0 0 0 0 0 0 0 0 0 0 0 0 0 0 0 -0 0 0 0 0 0 0 nan
nan 0 0 0 -0 -0 -0 1 1 0 0 0 0 0 0 0 0 0 0 0 0 0 0 0 0 0 0 0 0 0 0 0 0 0 0 -0 -0 -0 -0 0 0 0 nan
nan 0 0 -0 0 0 0 0 -0 0 0 0 0 0 0 0 0 0 0 0 0 0 0 0 0 0 0 0 0 0 0 0 0 0 0 0 -0 -0 -0 -0 0 0 nan
nan 0 0 0 1 1 0 0 0 0 -0 -0 0 0 0 0 0 0 0 0 0 0 0 0 0 0 0 0 0 0 0 0 0 0 -0 0 -0 0 0 0 -0 -0 nan
nan 1 0 0 0 0 0 1 0 0 0 0 0 0 0 0 0 0 0 0 0 0 0 0 0 0 0 0 0 0 0 0 0 -0 0 -0 0 -0 -0 0 0 -0 nan
nan -0 -0 -0 -0 0 0 0 0 1 0 0 0 0 0 0 0 0 0 0 0 0 0 0 0 0 0 0 0 0 0 0 0 0 0 0 -0 -0 0 0 -0 -0 nan
nan 0 1 0 1 1 1 1 0 0 0 0 0 0 0 0 0 0 0 0 0 0 0 0 0 0 0 0 0 -0 0 0 0 0 0 0 0 0 -0 -0 -0 -0 nan
nan 1 1 1 1 1 0 0 1 0 0 0 0 0 0 0 0 0 0 0 0 0 0 0 0 0 0 0 0 0 0 0 0 0 0 0 0 0 -0 -0 -0 -0 nan
nan 1 1 1 1 1 0 1 0 0 0 0 0 0 1 0 0 0 0 0 0 0 0 0 0 0 0 0 0 0 0 0 0 0 0 -0 -0 0 -0 -0 -0 -0 nan
nan 1 1 1 2 1 1 2 1 1 1 0 1 1 1 1 1 0 0 0 0 0 0 0 0 0 0 0 0 0 0 -0 -0 0 0 0 -0 0 -0 -0 -0 -0 nan
nan 1 1 1 1 1 2 2 1 -0 -0 0 0 0 1 1 0 0 0 0 0 0 0 0 0 0 0 0 0 -0 -0 0 0 -0 0 0 0 0 -0 -0 -0 -0 nan
nan 0 1 1 1 1 1 1 -0 -0 0 0 0 1 1 1 1 1 1 1 0 0 0 0 0 0 0 0 0 0 0 1 -0 0 0 -0 0 0 -0 -0 -0 -0 nan
nan 0 0 1 1 1 1 1 0 0 0 1 1 1 1 1 1 1 1 1 1 1 1 0 0 0 0 0 0 0 0 0 0 0 0 0 0 -0 -1 -0 -0 0 nan
nan nan nan nan nan nan nan nan nan nan nan nan nan nan nan nan nan nan nan nan nan nan nan nan nan nan nan nan nan nan nan nan nan nan nan nan nan nan nan nan nan nan nan
Wind_Speed
7 11 14 15 16 15 14 13 14 14 16 17 15 16 15 15 14 13 12 12 16 14 13 15 16 17 17 16 17 17 17 17 17 16 17 17 17 17 17 16 15 16 16
7 11 12 14 15 15 16 16 15 14 16 17 18 17 18 17 17 17 16 15 15 14 13 15 15 17 16 17 17 16 16 16 17 16 14 15 14 14 15 15 14 14 14
6 10 12 13 15 14 16 16 16 15 17 18 19 21 21 20 17 17 18 15 15 14 14 15 16 17 15 18 17 17 18 18 18 17 13 15 16 13 12 14 13 12 12
7 10 8 11 13 13 13 16 18 18 18 20 22 24 23 23 22 21 15 12 11 11 12 18 17 15 15 15 15 15 16 18 19 18 14 13 14 16 18 13 13 10 10
6 8 6 6 7 14 14 11 18 23 24 22 28 23 24 23 15 9 7 6 8 9 10 14 14 13 12 13 13 13 14 14 12 14 13 10 13 13 13 13 13 12 11
10 11 6 7 9 6 10 7 13 20 17 28 20 18 14 11 11 10 9 7 8 8 9 11 11 10 10 11 11 12 13 15 16 12 10 9 8 7 8 7 7 8 9
13 13 9 8 4 4 5 17 9 17 30 26 22 12 6 5 8 8 8 9 9 9 9 10 10 10 10 11 11 12 12 11 12 12 11 8 10 8 8 7 7 5 4
18 16 9 8 8 10 6 11 9 8 18 22 20 13 5 5 8 8 9 8 9 9 9 9 9 9 9 9 9 9 8 8 7 7 5 3 4 3 2 3 3 3 3
19 15 14 12 12 14 14 16 19 15 11 11 13 11 11 10 7 7 7 7 7 7 7 8 8 8 8 8 8 7 7 5 4 5 4 1 1 0 0 1 1 1 2
19 19 17 16 18 15 19 17 20 14 14 7 13 12 10 4 3 4 5 6 6 6 6 6 6 7 7 7 7 7 6 5 4 4 4 3 2 2 2 2 2 2 2
22 18 19 19 18 15 9 18 16 18 15 11 5 6 8 8 7 10 8 7 6 5 6 6 5 5 6 7 7 7 7 6 5 4 3 1 1 1 1 1 1 2 0
27 25 23 22 20 15 8 17 20 17 18 18 17 15 11 11 13 9 8 7 6 6 6 6 6 6 6 7 7 7 6 5 4 3 2 5 8 10 9 6 7 6 3
27 30 28 26 23 19 20 18 16 18 18 18 18 15 14 11 10 10 8 7 7 6 6 7 6 6 6 6 7 6 6 5 4 3 6 13 9 8 7 2 4 4 4
27 31 31 30 28 23 22 24 23 22 20 17 17 15 14 13 11 10 9 8 7 6 6 6 6 6 6 6 6 6 6 6 6 5 9 14 12 7 3 5 6 4 2
26 30 33 33 31 29 27 26 26 24 21 20 17 16 15 13 12 10 10 8 8 7 6 6 6 6 6 5 5 5 5 5 7 8 8 13 10 6 5 5 6 5 4
23 27 31 31 32 30 29 29 27 25 23 19 20 19 17 15 13 11 11 9 8 8 7 7 7 6 6 5 5 5 5 5 7 5 6 9 10 9 8 7 8 8 9
27 27 30 33 33 32 31 29 28 26 25 23 22 20 17 16 15 13 12 11 10 9 8 8 7 6 6 6 6 6 5 5 6 7 7 7 9 9 9 10 9 8 9
27 28 31 33 36 35 33 32 31 30 26 24 23 21 20 18 16 15 13 12 10 8 8 8 7 6 6 6 6 6 6 6 7 8 8 9 9 10 9 9 10 10 12
27 30 34 35 36 36 34 33 31 29 27 26 25 22 20 19 17 15 14 12 11 10 9 8 8 7 7 7 6 7 7 7 8 8 10 11 10 11 11 9 10 11 13
23 26 30 33 34 35 36 34 33 30 32 29 27 24 22 20 18 16 14 13 12 12 10 10 9 8 7 6 7 7 8 8 9 9 11 11 11 11 11 11 12 14 14
21 24 28 32 35 36 38 38 37 35 33 31 29 26 23 22 20 17 15 14 13 12 11 11 10 9 8 7 6 6 7 8 9 10 11 10 10 11 12 13 13 15 17
16 19 24 27 31 37 39 38 36 34 32 33 31 30 28 27 24 19 17 16 15 13 12 11 10 10 8 8 7 6 4 7 10 11 11 12 13 11 12 13 14 16 16
10 15 19 22 26 32 34 35 33 33 35 34 33 32 30 27 24 21 20 18 17 17 15 13 12 11 11 11 11 8 5 3 4 9 9 10 10 9 10 13 15 16 15
2 9 15 19 23 26 28 34 38 40 37 36 36 35 32 29 27 25 22 19 17 16 15 14 13 13 12 12 12 12 14 10 5 4 7 9 9 10 12 13 14 14 14
4 3 9 15 19 22 27 27 33 36 35 34 34 34 33 32 30 27 25 22 19 17 16 14 13 13 13 12 12 11 11 11 11 9 4 4 8 12 13 13 14 12 12
9 3 3 9 15 19 23 28 33 35 36 36 35 36 35 33 31 28 25 23 20 19 17 16 15 14 13 13 12 11 11 8 7 7 6 7 10 11 13 13 11 11 11
Wind_Direction
211 211 200 208 209 203 202 195 192 190 184 171 170 167 172 167 171 165 150 143 149 132 124 115 120 125 124 129 125 122 120 116 112 106 105 103 102 103 104 105 104 101 100
231 217 205 205 210 203 200 203 199 197 184 175 172 166 161 161 154 151 148 144 147 149 141 127 119 124 126 129 128 125 121 117 112 103 104 103 99 99 99 97 102 104 103
220 210 209 210 211 215 209 211 204 207 197 181 179 171 165 159 151 143 133 140 145 137 137 140 138 127 132 134 128 121 116 112 102 86 94 99 98 99 103 95 88 91 102
207 188 197 220 221 222 222 220 215 204 200 185 178 166 160 156 145 143 142 136 123 130 129 132 132 140 146 135 131 125 121 119 115 125 120 120 120 105 96 111 107 98 99
170 151 205 236 216 217 220 218 228 213 198 177 165 162 162 151 136 158 207 170 151 140 134 144 148 148 135 136 135 129 127 130 125 138 127 123 122 124 134 121 126 127 107
164 146 178 163 118 143 219 204 209 218 181 142 128 150 133 148 177 194 200 187 173 157 143 143 148 146 140 140 137 131 133 130 102 90 82 96 95 117 120 117 115 112 114
156 159 177 169 166 175 175 196 21 85 140 147 144 114 120 154 166 165 177 167 161 162 155 154 150 149 147 146 142 138 136 129 108 106 103 104 98 96 95 101 107 110 121
170 162 185 169 155 140 142 162 163 65 92 111 118 115 133 162 151 140 146 153 152 153 151 161 167 163 159 159 155 151 149 144 130 113 97 113 123 109 89 69 78 107 138
186 179 181 178 149 131 124 132 148 144 107 123 128 147 168 164 148 141 153 161 159 159 154 162 165 166 171 173 174 173 173 185 176 155 121 224 210 263 101 82 102 159 199
186 189 190 181 174 161 145 142 138 131 128 121 156 164 157 157 163 168 185 177 174 168 169 173 173 170 178 184 187 187 195 199 199 208 241 286 303 313 323 312 292 290 277
189 191 197 200 184 183 167 161 152 159 146 136 176 187 175 174 207 195 181 178 176 174 173 175 173 172 175 179 187 192 198 202 191 198 227 194 257 5 12 79 115 75 66
199 195 188 200 201 202 197 186 184 190 180 170 177 190 202 194 200 189 184 178 172 171 176 177 180 183 188 189 191 195 196 191 182 198 137 81 75 106 98 122 133 119 133
205 201 196 197 201 204 185 188 199 201 201 181 180 190 195 193 192 184 186 188 186 184 187 184 185 190 185 185 186 189 195 189 174 191 164 131 142 133 117 160 179 201 230
212 207 206 202 200 199 199 196 198 202 200 196 196 193 198 192 195 198 197 195 196 193 189 191 184 189 191 189 201 201 202 193 172 186 185 174 171 140 80 65 65 50 39
212 212 209 208 204 202 204 201 202 205 203 201 201 197 200 200 196 198 201 201 197 199 197 196 200 202 202 202 214 218 211 189 170 212 189 201 203 192 231 291 304 304 304
211 212 214 208 205 206 205 208 205 206 207 207 205 204 201 202 201 201 203 200 203 204 205 206 209 208 214 218 223 223 218 204 184 195 218 224 249 271 284 288 289 291 293
208 209 209 208 207 210 209 209 211 212 215 213 211 209 209 206 205 202 206 210 208 208 209 214 214 216 217 220 221 225 224 218 210 207 233 248 250 264 274 282 290 298 303
209 205 212 212 211 212 211 212 213 214 215 216 214 210 210 210 210 209 209 208 211 218 220 223 226 232 232 225 218 217 218 222 226 232 237 245 255 274 279 284 291 303 308
213 211 214 214 212 213 213 213 214 215 215 215 213 212 212 210 210 215 217 217 214 216 218 222 227 228 234 236 242 244 245 239 234 238 242 249 257 265 274 282 294 303 309
206 204 211 213 211 207 211 212 214 214 216 217 214 213 214 216 214 213 217 220 222 222 223 224 228 230 237 243 245 248 250 249 245 240 249 251 256 261 271 287 304 310 309
204 201 204 211 212 212 212 211 212 214 214 215 216 217 217 217 219 216 223 225 225 225 224 224 224 225 229 233 235 249 251 254 253 250 252 257 261 261 276 284 295 303 308
209 203 204 207 208 210 215 215 217 216 215 217 215 214 213 216 217 216 221 227 230 231 228 228 230 235 235 232 207 214 271 281 252 246 244 246 259 262 280 287 298 303 305
208 208 206 205 205 209 211 211 212 214 216 213 214 216 216 214 214 216 219 223 226 230 229 229 228 230 233 229 228 203 213 224 221 266 251 248 255 264 277 292 302 306 307
186 206 205 206 205 207 208 212 216 219 217 218 219 218 218 214 213 216 218 220 225 233 233 231 230 228 227 229 226 227 228 220 185 239 265 273 272 271 281 288 293 298 301
60 194 200 204 206 210 210 210 218 221 222 223 220 217 215 214 213 212 214 216 216 222 228 230 231 232 229 232 227 226 229 233 233 224 217 268 298 286 286 287 291 290 295
38 61 177 202 205 212 213 214 226 226 224 221 220 219 216 215 214 213 213 213 214 214 216 220 221 227 229 230 234 229 225 217 237 226 254 264 268 279 285 288 281 278 294
Height
1471 1472 1474 1477 1479 1482 1484 1485 1487 1488 1489 1490 1492 1493 1496 1498 1501 1502 1502 1502 1503 1503 1504 1505 1506 1507 1507 1509 1509 1511 1513 1514 1515 1516 1517 1517 1518 1519 1520 1521 1521 1523 1523
1470 1472 1473 1476 1479 1481 1483 1485 1487 1488 1490 1491 1493 1494 1497 1500 1500 1501 1502 1502 1504 1504 1505 1506 1507 1508 1508 1510 1511 1513 1514 1516 1517 1519 1519 1520 1521 1522 1522 1523 1524 1524 1525
1469 1471 1473 1476 1479 1481 1483 1485 1487 1488 1490 1492 1493 1494 1496 1498 1500 1500 1502 1503 1504 1504 1505 1507 1508 1510 1510 1512 1514 1515 1516 1518 1520 1521 1522 1523 1523 1524 1525 1526 1526 1526 1526
1469 1471 1473 1475 1478 1480 1482 1484 1486 1488 1490 1492 1493 1493 1495 1497 1498 1497 1502 1504 1504 1504 1506 1508 1510 1511 1511 1514 1515 1517 1519 1520 1521 1521 1523 1524 1525 1526 1527 1527 1527 1528 1529
1469 1471 1473 1475 1476 1478 1480 1483 1484 1485 1488 1489 1487 1492 1494 1493 1493 1500 1503 1506 1506 1506 1507 1508 1510 1511 1513 1515 1517 1519 1521 1523 1524 1524 1524 1526 1527 1527 1528 1528 1529 1530 1530
1470 1473 1474 1475 1477 1477 1478 1481 1479 1481 1484 1473 1482 1490 1490 1495 1499 1502 1504 1505 1507 1507 1508 1509 1511 1513 1515 1517 1519 1520 1522 1524 1527 1528 1527 1527 1527 1528 1529 1530 1530 1531 1531
1470 1473 1475 1476 1477 1477 1476 1477 1476 1478 1476 1482 1484 1493 1497 1500 1501 1503 1504 1507 1507 1508 1509 1510 1512 1514 1516 1518 1520 1521 1523 1525 1526 1528 1528 1528 1528 1529 1530 1531 1532 1532 1533
1470 1473 1475 1476 1477 1477 1478 1477 1480 1488 1481 1483 1488 1494 1498 1500 1503 1503 1505 1507 1508 1509 1509 1511 1513 1515 1516 1518 1520 1522 1524 1525 1526 1527 1527 1527 1529 1530 1530 1531 1532 1533 1533
1469 1472 1475 1477 1478 1478 1479 1481 1483 1487 1488 1491 1491 1495 1499 1503 1503 1504 1507 1508 1509 1510 1510 1512 1514 1515 1517 1519 1521 1522 1524 1525 1525 1527 1527 1526 1528 1529 1530 1530 1531 1532 1532
1468 1471 1474 1476 1478 1480 1480 1484 1487 1491 1491 1491 1496 1498 1499 1501 1502 1504 1507 1509 1509 1509 1511 1513 1514 1515 1517 1519 1520 1522 1523 1524 1525 1525 1526 1526 1527 1529 1530 1530 1530 1531 1531
1466 1468 1471 1475 1478 1480 1481 1484 1488 1489 1491 1494 1498 1500 1500 1502 1504 1506 1507 1508 1509 1510 1511 1512 1513 1515 1516 1518 1520 1521 1522 1523 1524 1524 1525 1526 1527 1528 1529 1529 1530 1530 1530
1463 1465 1468 1473 1476 1478 1480 1484 1487 1489 1492 1494 1498 1499 1500 1501 1504 1504 1506 1507 1509 1509 1511 1512 1513 1514 1516 1517 1518 1520 1521 1522 1523 1524 1525 1526 1528 1528 1528 1528 1528 1529 1529
1459 1462 1465 1469 1474 1476 1478 1481 1485 1487 1491 1491 1494 1497 1499 1500 1503 1504 1505 1506 1508 1509 1511 1511 1512 1513 1515 1516 1518 1519 1521 1521 1522 1522 1524 1526 1527 1526 1526 1525 1526 1527 1527
1453 1458 1462 1465 1469 1473 1477 1478 1480 1485 1488 1490 1492 1495 1497 1499 1500 1502 1504 1505 1507 1508 1510 1510 1511 1513 1515 1515 1517 1518 1519 1520 1522 1521 1522 1522 1524 1524 1524 1525 1526 1526 1526
1452 1454 1458 1462 1466 1470 1474 1478 1481 1483 1486 1489 1490 1492 1495 1497 1499 1500 1502 1504 1505 1507 1508 1510 1512 1513 1514 1514 1517 1517 1518 1518 1520 1519 1521 1520 1521 1521 1521 1522 1523 1523 1524
1453 1454 1456 1460 1463 1467 1470 1474 1477 1481 1484 1485 1488 1490 1492 1495 1496 1498 1501 1502 1503 1505 1507 1509 1510 1512 1513 1514 1515 1516 1517 1517 1518 1519 1519 1519 1519 1519 1520 1521 1522 1522 1522
1445 1450 1452 1456 1460 1463 1466 1470 1474 1477 1480 1483 1485 1488 1491 1493 1495 1497 1499 1500 1502 1504 1505 1508 1509 1510 1511 1513 1514 1516 1515 1516 1517 1518 1518 1518 1519 1518 1518 1519 1520 1519 1520
1439 1442 1447 1450 1454 1458 1462 1466 1470 1474 1477 1479 1483 1486 1489 1492 1494 1495 1497 1499 1500 1502 1505 1506 1508 1508 1511 1512 1512 1515 1514 1514 1516 1516 1516 1517 1517 1516 1516 1518 1518 1517 1518
1430 1434 1438 1442 1448 1454 1457 1462 1466 1470 1472 1475 1479 1482 1486 1489 1490 1493 1495 1499 1500 1501 1502 1504 1507 1508 1511 1511 1512 1513 1512 1513 1514 1514 1515 1516 1516 1515 1515 1515 1516 1515 1516
1428 1431 1435 1439 1443 1448 1453 1457 1461 1465 1467 1471 1475 1479 1482 1485 1488 1490 1493 1496 1498 1500 1501 1502 1505 1507 1508 1509 1511 1510 1510 1511 1511 1512 1513 1513 1513 1514 1514 1513 1512 1513 1513
1425 1428 1429 1432 1437 1442 1445 1449 1455 1459 1463 1468 1471 1475 1479 1482 1484 1486 1490 1492 1495 1497 1499 1501 1503 1505 1506 1507 1509 1510 1509 1509 1508 1509 1511 1511 1510 1512 1512 1512 1510 1512 1509
1423 1426 1428 1429 1432 1436 1441 1446 1449 1453 1458 1463 1466 1470 1473 1478 1482 1484 1488 1490 1492 1495 1496 1498 1500 1502 1503 1506 1508 1509 1509 1509 1507 1507 1507 1510 1510 1509 1509 1510 1508 1508 1506
1420 1423 1427 1430 1431 1432 1436 1440 1445 1449 1451 1456 1461 1466 1470 1474 1479 1481 1484 1487 1490 1493 1494 1495 1496 1500 1499 1503 1505 1506 1508 1508 1508 1506 1505 1507 1507 1508 1504 1508 1505 1503 1502
1418 1420 1423 1427 1430 1433 1434 1435 1437 1439 1445 1450 1456 1460 1464 1468 1472 1477 1480 1484 1486 1488 1490 1492 1493 1497 1498 1499 1501 1501 1503 1504 1505 1508 1505 1505 1504 1506 1503 1504 1502 1500 1499
1416 1418 1420 1423 1426 1430 1433 1435 1435 1437 1443 1447 1451 1455 1460 1465 1469 1473 1477 1479 1481 1484 1486 1490 1492 1494 1495 1495 1497 1498 1499 1500 1502 1502 1503 1504 1503 1503 1502 1500 1499 1497 1496
1417 1417 1418 1421 1424 1426 1429 1432 1433 1436 1439 1442 1446 1450 1455 1460 1464 1468 1471 1474 1478 1480 1484 1487 1488 1490 1492 1492 1495 1494 1498 1498 1498 1498 1501 1502 1501 1501 1498 1497 1496 1494 1493